owner,sensor,date,latitude,longitude,vertical_datum,wind_speed,wind_to_direction,wind_speed_of_gust,qcFlag 
TCOON,ioos:station:TCOON:146:1,2015-03-01T00:30:00Z,28.1324,-97.0345,0.0,4.3,197.0,5.4,'1111122,1111122,1111122' 
TCOON,ioos:station:TCOON:146:1,2015-03-01T01:30:00Z,28.1324,-97.0345,0.0,4.3,195.0,5.2,'1111122,1111122,1111122' 
TCOON,ioos:station:TCOON:146:1,2015-03-01T02:30:00Z,28.1324,-97.0345,0.0,4.7,163.0,5.4,'1111122,1111122,1111122' 
TCOON,ioos:station:TCOON:146:1,2015-03-01T03:30:00Z,28.1324,-97.0345,0.0,4.4,182.0,5.4,'1111122,1111122,1111122' 
TCOON,ioos:station:TCOON:146:1,2015-03-01T04:30:00Z,28.1324,-97.0345,0.0,4.5,195.0,5.5,'1111122,1111122,1111122' 
TCOON,ioos:station:TCOON:146:1,2015-03-01T05:30:00Z,28.1324,-97.0345,0.0,4.7,191.0,5.4,'1111122,1111122,1111122' 
TCOON,ioos:station:TCOON:146:1,2015-03-01T06:30:00Z,28.1324,-97.0345,0.0,4.4,196.0,5.4,'1111122,1111122,1111122' 
TCOON,ioos:station:TCOON:146:1,2015-03-01T07:30:00Z,28.1324,-97.0345,0.0,4.3,198.0,5.4,'1111122,1111122,1111122' 
TCOON,ioos:station:TCOON:146:1,2015-03-01T08:30:00Z,28.1324,-97.0345,0.0,4.3,182.0,5.4,'1111122,1111122,1111122' 
TCOON,ioos:station:TCOON:146:1,2015-03-01T09:30:00Z,28.1324,-97.0345,0.0,4.5,178.0,5.4,'1111122,1111122,1111122' 
TCOON,ioos:station:TCOON:146:1,2015-03-01T10:30:00Z,28.1324,-97.0345,0.0,4.5,170.0,5.4,'1111122,1111122,1111122' 
TCOON,ioos:station:TCOON:146:1,2015-03-01T11:30:00Z,28.1324,-97.0345,0.0,4.5,142.0,5.4,'1111122,1111122,1111122' 
TCOON,ioos:station:TCOON:146:1,2015-03-01T12:30:00Z,28.1324,-97.0345,0.0,4.6,175.0,5.4,'1111122,1111122,1111122' 
TCOON,ioos:station:TCOON:146:1,2015-03-01T13:30:00Z,28.1324,-97.0345,0.0,4.5,172.0,5.4,'1111122,1111122,1111122' 
TCOON,ioos:station:TCOON:146:1,2015-03-01T14:30:00Z,28.1324,-97.0345,0.0,4.8,177.0,5.4,'1111122,1111122,1111122' 
TCOON,ioos:station:TCOON:146:1,2015-03-01T15:30:00Z,28.1324,-97.0345,0.0,4.4,178.0,5.4,'1111122,1111122,1111122' 
TCOON,ioos:station:TCOON:146:1,2015-03-01T16:30:00Z,28.1324,-97.0345,0.0,4.6,173.0,5.2,'1111122,1111122,1111122' 
TCOON,ioos:station:TCOON:146:1,2015-03-01T17:30:00Z,28.1324,-97.0345,0.0,3.1,169.0,3.9,'1111122,1111122,1111122' 
TCOON,ioos:station:TCOON:146:1,2015-03-01T18:30:00Z,28.1324,-97.0345,0.0,3.5,173.0,4.1,'1111122,1111122,1111122' 
TCOON,ioos:station:TCOON:146:1,2015-03-01T19:30:00Z,28.1324,-97.0345,0.0,3.2,169.0,3.8,'1111122,1111122,1111122' 
TCOON,ioos:station:TCOON:146:1,2015-03-01T20:30:00Z,28.1324,-97.0345,0.0,2.9,176.0,3.4,'1111122,1111122,1111122' 
TCOON,ioos:station:TCOON:146:1,2015-03-01T21:30:00Z,28.1324,-97.0345,0.0,4.6,187.0,5.2,'1111122,1111122,1111122' 
TCOON,ioos:station:TCOON:146:1,2015-03-01T22:30:00Z,28.1324,-97.0345,0.0,3.2,170.0,3.8,'1111122,1111122,1111122' 
TCOON,ioos:station:TCOON:146:1,2015-03-01T23:30:00Z,28.1324,-97.0345,0.0,4.1,142.0,4.8,'1111122,1111122,1111122' 
TCOON,ioos:station:TCOON:146:1,2015-03-02T00:30:00Z,28.1324,-97.0345,0.0,4.7,167.0,5.4,'1111122,1111122,1111122' 
TCOON,ioos:station:TCOON:146:1,2015-03-02T01:30:00Z,28.1324,-97.0345,0.0,4.6,186.0,5.4,'1111122,1111122,1111122' 
TCOON,ioos:station:TCOON:146:1,2015-03-02T02:30:00Z,28.1324,-97.0345,0.0,4.8,179.0,5.5,'1111122,1111122,1111122' 
TCOON,ioos:station:TCOON:146:1,2015-03-02T03:30:00Z,28.1324,-97.0345,0.0,4.7,178.0,5.4,'1111122,1111122,1111122' 
TCOON,ioos:station:TCOON:146:1,2015-03-02T04:30:00Z,28.1324,-97.0345,0.0,4.4,172.0,5.1,'1111122,1111122,1111122' 
TCOON,ioos:station:TCOON:146:1,2015-03-02T05:30:00Z,28.1324,-97.0345,0.0,4.5,177.0,5.5,'1111122,1111122,1111122' 
TCOON,ioos:station:TCOON:146:1,2015-03-02T06:30:00Z,28.1324,-97.0345,0.0,4.6,164.0,5.4,'1111122,1111122,1111122' 
TCOON,ioos:station:TCOON:146:1,2015-03-02T07:30:00Z,28.1324,-97.0345,0.0,4.8,173.0,5.5,'1111122,1111122,1111122' 
TCOON,ioos:station:TCOON:146:1,2015-03-02T08:30:00Z,28.1324,-97.0345,0.0,4.4,181.0,5.4,'1111122,1111122,1111122' 
TCOON,ioos:station:TCOON:146:1,2015-03-02T09:30:00Z,28.1324,-97.0345,0.0,4.5,175.0,5.4,'1111122,1111122,1111122' 
TCOON,ioos:station:TCOON:146:1,2015-03-02T10:30:00Z,28.1324,-97.0345,0.0,4.4,179.0,5.4,'1111122,1111122,1111122' 
TCOON,ioos:station:TCOON:146:1,2015-03-02T11:30:00Z,28.1324,-97.0345,0.0,4.5,183.0,5.3,'1111122,1111122,1111122' 
TCOON,ioos:station:TCOON:146:1,2015-03-02T12:30:00Z,28.1324,-97.0345,0.0,4.6,175.0,5.6,'1111122,1111122,1111122' 
TCOON,ioos:station:TCOON:146:1,2015-03-02T13:30:00Z,28.1324,-97.0345,0.0,4.5,187.0,5.4,'1111122,1111122,1111122' 
TCOON,ioos:station:TCOON:146:1,2015-03-02T14:30:00Z,28.1324,-97.0345,0.0,4.5,180.0,5.5,'1111122,1111122,1111122' 
TCOON,ioos:station:TCOON:146:1,2015-03-02T15:30:00Z,28.1324,-97.0345,0.0,4.7,182.0,6.0,'1111122,1111122,1111122' 
TCOON,ioos:station:TCOON:146:1,2015-03-02T16:30:00Z,28.1324,-97.0345,0.0,4.6,181.0,5.4,'1111122,1111122,1111122' 
TCOON,ioos:station:TCOON:146:1,2015-03-02T17:30:00Z,28.1324,-97.0345,0.0,4.9,187.0,5.5,'1111122,1111122,1111122' 
TCOON,ioos:station:TCOON:146:1,2015-03-02T18:30:00Z,28.1324,-97.0345,0.0,3.7,182.0,4.9,'1111122,1111122,1111122' 
TCOON,ioos:station:TCOON:146:1,2015-03-02T19:30:00Z,28.1324,-97.0345,0.0,4.1,182.0,4.9,'1111122,1111122,1111122' 
TCOON,ioos:station:TCOON:146:1,2015-03-02T20:30:00Z,28.1324,-97.0345,0.0,3.6,185.0,4.6,'1111122,1111122,1111122' 
TCOON,ioos:station:TCOON:146:1,2015-03-02T21:30:00Z,28.1324,-97.0345,0.0,4.2,185.0,4.9,'1111122,1111122,1111122' 
TCOON,ioos:station:TCOON:146:1,2015-03-02T22:30:00Z,28.1324,-97.0345,0.0,4.0,210.0,5.1,'1111122,1111122,1111122' 
TCOON,ioos:station:TCOON:146:1,2015-03-02T23:30:00Z,28.1324,-97.0345,0.0,4.2,203.0,4.9,'1111122,1111122,1111122' 
TCOON,ioos:station:TCOON:146:1,2015-03-03T00:30:00Z,28.1324,-97.0345,0.0,3.4,202.0,4.3,'1111122,1111122,1111122' 
TCOON,ioos:station:TCOON:146:1,2015-03-03T01:30:00Z,28.1324,-97.0345,0.0,4.0,215.0,4.9,'1111122,1111122,1111122' 
TCOON,ioos:station:TCOON:146:1,2015-03-03T02:30:00Z,28.1324,-97.0345,0.0,4.4,210.0,5.3,'1111122,1111122,1111122' 
TCOON,ioos:station:TCOON:146:1,2015-03-03T03:30:00Z,28.1324,-97.0345,0.0,3.6,208.0,4.6,'1111122,1111122,1111122' 
TCOON,ioos:station:TCOON:146:1,2015-03-03T04:30:00Z,28.1324,-97.0345,0.0,3.6,204.0,4.6,'1111122,1111122,1111122' 
TCOON,ioos:station:TCOON:146:1,2015-03-03T05:30:00Z,28.1324,-97.0345,0.0,3.1,188.0,3.8,'1111122,1111122,1111122' 
TCOON,ioos:station:TCOON:146:1,2015-03-03T06:30:00Z,28.1324,-97.0345,0.0,3.0,180.0,3.8,'1111122,1111122,1111122' 
TCOON,ioos:station:TCOON:146:1,2015-03-03T07:30:00Z,28.1324,-97.0345,0.0,3.1,172.0,4.1,'1111122,1111122,1111122' 
TCOON,ioos:station:TCOON:146:1,2015-03-03T08:30:00Z,28.1324,-97.0345,0.0,4.0,201.0,4.5,'1111122,1111122,1111122' 
TCOON,ioos:station:TCOON:146:1,2015-03-03T09:30:00Z,28.1324,-97.0345,0.0,4.8,216.0,5.5,'1111122,1111122,1111122' 
TCOON,ioos:station:TCOON:146:1,2015-03-03T10:30:00Z,28.1324,-97.0345,0.0,3.5,217.0,4.2,'1111122,1111122,1111122' 
TCOON,ioos:station:TCOON:146:1,2015-03-03T11:30:00Z,28.1324,-97.0345,0.0,3.3,200.0,3.9,'1111122,1111122,1111122' 
TCOON,ioos:station:TCOON:146:1,2015-03-03T12:30:00Z,28.1324,-97.0345,0.0,2.5,167.0,2.8,'1111122,1111122,1111122' 
TCOON,ioos:station:TCOON:146:1,2015-03-03T13:30:00Z,28.1324,-97.0345,0.0,2.1,251.0,2.5,'1111122,1111122,1111122' 
TCOON,ioos:station:TCOON:146:1,2015-03-03T14:30:00Z,28.1324,-97.0345,0.0,3.1,301.0,3.9,'1111122,1111122,1111122' 
TCOON,ioos:station:TCOON:146:1,2015-03-03T15:30:00Z,28.1324,-97.0345,0.0,2.4,69.0,3.4,'1111122,1111122,1111122' 
TCOON,ioos:station:TCOON:146:1,2015-03-03T16:30:00Z,28.1324,-97.0345,0.0,1.7,48.0,1.9,'1111122,1111122,1111122' 
TCOON,ioos:station:TCOON:146:1,2015-03-03T17:30:00Z,28.1324,-97.0345,0.0,1.7,314.0,5.2,'1111122,1111122,1111122' 
TCOON,ioos:station:TCOON:146:1,2015-03-03T18:30:00Z,28.1324,-97.0345,0.0,4.5,326.0,5.1,'1111122,1111122,1111122' 
TCOON,ioos:station:TCOON:146:1,2015-03-03T19:30:00Z,28.1324,-97.0345,0.0,4.3,344.0,5.4,'1111122,1111122,1111122' 
TCOON,ioos:station:TCOON:146:1,2015-03-03T20:30:00Z,28.1324,-97.0345,0.0,4.4,341.0,6.3,'1111122,1111122,1111122' 
TCOON,ioos:station:TCOON:146:1,2015-03-03T21:30:00Z,28.1324,-97.0345,0.0,4.4,339.0,5.2,'1111122,1111122,1111122' 
TCOON,ioos:station:TCOON:146:1,2015-03-03T23:00:00Z,28.1324,-97.0345,0.0,4.1,320.0,4.8,'1111122,1111122,1111122' 
TCOON,ioos:station:TCOON:146:1,2015-03-03T23:30:00Z,28.1324,-97.0345,0.0,4.3,310.0,5.0,'1111122,1111122,1111122' 
TCOON,ioos:station:TCOON:146:1,2015-03-04T00:30:00Z,28.1324,-97.0345,0.0,4.3,304.0,5.3,'1111122,1111122,1111122' 
TCOON,ioos:station:TCOON:146:1,2015-03-04T01:30:00Z,28.1324,-97.0345,0.0,4.9,295.0,5.3,'1111122,1111122,1111122' 
TCOON,ioos:station:TCOON:146:1,2015-03-04T02:30:00Z,28.1324,-97.0345,0.0,4.1,303.0,5.0,'1111122,1111122,1111122' 
TCOON,ioos:station:TCOON:146:1,2015-03-04T03:30:00Z,28.1324,-97.0345,0.0,4.5,306.0,5.3,'1111122,1111122,1111122' 
TCOON,ioos:station:TCOON:146:1,2015-03-04T04:30:00Z,28.1324,-97.0345,0.0,4.4,304.0,5.3,'1111122,1111122,1111122' 
TCOON,ioos:station:TCOON:146:1,2015-03-04T05:30:00Z,28.1324,-97.0345,0.0,3.8,300.0,4.3,'1111122,1111122,1111122' 
TCOON,ioos:station:TCOON:146:1,2015-03-04T06:30:00Z,28.1324,-97.0345,0.0,4.3,301.0,5.2,'1111122,1111122,1111122' 
TCOON,ioos:station:TCOON:146:1,2015-03-04T07:30:00Z,28.1324,-97.0345,0.0,4.0,306.0,4.2,'1111122,1111122,1111122' 
TCOON,ioos:station:TCOON:146:1,2015-03-04T08:30:00Z,28.1324,-97.0345,0.0,5.0,311.0,5.3,'1111122,1111122,1111122' 
TCOON,ioos:station:TCOON:146:1,2015-03-04T09:30:00Z,28.1324,-97.0345,0.0,4.7,319.0,5.2,'1111122,1111122,1111122' 
TCOON,ioos:station:TCOON:146:1,2015-03-04T10:30:00Z,28.1324,-97.0345,0.0,4.3,326.0,5.0,'1111122,1111122,1111122' 
TCOON,ioos:station:TCOON:146:1,2015-03-04T11:30:00Z,28.1324,-97.0345,0.0,3.4,322.0,3.7,'1111122,1111122,1111122' 
TCOON,ioos:station:TCOON:146:1,2015-03-04T12:30:00Z,28.1324,-97.0345,0.0,3.1,308.0,3.6,'1111122,1111122,1111122' 
TCOON,ioos:station:TCOON:146:1,2015-03-04T13:30:00Z,28.1324,-97.0345,0.0,3.5,321.0,4.1,'1111122,1111122,1111122' 
TCOON,ioos:station:TCOON:146:1,2015-03-04T14:30:00Z,28.1324,-97.0345,0.0,3.3,316.0,3.7,'1111122,1111122,1111122' 
TCOON,ioos:station:TCOON:146:1,2015-03-04T15:30:00Z,28.1324,-97.0345,0.0,2.9,310.0,3.7,'1111122,1111122,1111122' 
TCOON,ioos:station:TCOON:146:1,2015-03-04T16:30:00Z,28.1324,-97.0345,0.0,4.0,321.0,4.7,'1111122,1111122,1111122' 
TCOON,ioos:station:TCOON:146:1,2015-03-04T17:30:00Z,28.1324,-97.0345,0.0,4.5,330.0,5.2,'1111122,1111122,1111122' 
TCOON,ioos:station:TCOON:146:1,2015-03-04T18:30:00Z,28.1324,-97.0345,0.0,4.0,324.0,5.1,'1111122,1111122,1111122' 
TCOON,ioos:station:TCOON:146:1,2015-03-04T19:30:00Z,28.1324,-97.0345,0.0,4.7,332.0,5.8,'1111122,1111122,1111122' 
TCOON,ioos:station:TCOON:146:1,2015-03-04T20:30:00Z,28.1324,-97.0345,0.0,4.1,326.0,5.3,'1111122,1111122,1111122' 
TCOON,ioos:station:TCOON:146:1,2015-03-04T21:30:00Z,28.1324,-97.0345,0.0,4.6,317.0,5.2,'1111122,1111122,1111122' 
TCOON,ioos:station:TCOON:146:1,2015-03-04T22:30:00Z,28.1324,-97.0345,0.0,3.4,314.0,3.8,'1111122,1111122,1111122' 
TCOON,ioos:station:TCOON:146:1,2015-03-04T23:30:00Z,28.1324,-97.0345,0.0,2.8,307.0,3.6,'1111122,1111122,1111122' 
TCOON,ioos:station:TCOON:146:1,2015-03-05T00:30:00Z,28.1324,-97.0345,0.0,1.8,293.0,2.1,'1111122,1111122,1111122' 
TCOON,ioos:station:TCOON:146:1,2015-03-05T01:30:00Z,28.1324,-97.0345,0.0,1.6,261.0,2.3,'1111122,1111122,1111122' 
TCOON,ioos:station:TCOON:146:1,2015-03-05T02:30:00Z,28.1324,-97.0345,0.0,3.5,213.0,4.4,'1111122,1111122,1111122' 
TCOON,ioos:station:TCOON:146:1,2015-03-05T03:30:00Z,28.1324,-97.0345,0.0,3.6,257.0,4.3,'1111122,1111122,1111122' 
TCOON,ioos:station:TCOON:146:1,2015-03-05T04:30:00Z,28.1324,-97.0345,0.0,8.9,176.0,15.1,'1111122,1111122,1111122' 
TCOON,ioos:station:TCOON:146:1,2015-03-05T05:30:00Z,28.1324,-97.0345,0.0,10.8,170.0,16.5,'1111122,1111122,1111122' 
TCOON,ioos:station:TCOON:146:1,2015-03-05T06:30:00Z,28.1324,-97.0345,0.0,11.1,169.0,17.2,'1111122,1111122,1111122' 
TCOON,ioos:station:TCOON:146:1,2015-03-05T07:30:00Z,28.1324,-97.0345,0.0,11.9,174.0,19.0,'1111122,1111122,1111122' 
TCOON,ioos:station:TCOON:146:1,2015-03-05T08:30:00Z,28.1324,-97.0345,0.0,9.3,169.0,16.3,'1111122,1111122,1111122' 
TCOON,ioos:station:TCOON:146:1,2015-03-05T09:30:00Z,28.1324,-97.0345,0.0,8.8,169.0,13.0,'1111122,1111122,1111122' 
TCOON,ioos:station:TCOON:146:1,2015-03-05T10:30:00Z,28.1324,-97.0345,0.0,8.1,167.0,10.3,'1111122,1111122,1111122' 
TCOON,ioos:station:TCOON:146:1,2015-03-05T11:30:00Z,28.1324,-97.0345,0.0,8.3,171.0,12.0,'1111122,1111122,1111122' 
TCOON,ioos:station:TCOON:146:1,2015-03-05T12:30:00Z,28.1324,-97.0345,0.0,8.4,169.0,12.3,'1111122,1111122,1111122' 
TCOON,ioos:station:TCOON:146:1,2015-03-05T13:30:00Z,28.1324,-97.0345,0.0,8.4,171.0,11.5,'1111122,1111122,1111122' 
TCOON,ioos:station:TCOON:146:1,2015-03-05T14:30:00Z,28.1324,-97.0345,0.0,8.0,161.0,13.7,'1111122,1111122,1111122' 
TCOON,ioos:station:TCOON:146:1,2015-03-05T15:30:00Z,28.1324,-97.0345,0.0,8.0,163.0,10.1,'1111122,1111122,1111122' 
TCOON,ioos:station:TCOON:146:1,2015-03-05T16:30:00Z,28.1324,-97.0345,0.0,8.2,165.0,11.6,'1111122,1111122,1111122' 
TCOON,ioos:station:TCOON:146:1,2015-03-05T17:30:00Z,28.1324,-97.0345,0.0,7.7,161.0,9.3,'1111122,1111122,1111122' 
TCOON,ioos:station:TCOON:146:1,2015-03-05T18:30:00Z,28.1324,-97.0345,0.0,7.7,165.0,9.7,'1111122,1111122,1111122' 
TCOON,ioos:station:TCOON:146:1,2015-03-05T19:30:00Z,28.1324,-97.0345,0.0,7.3,163.0,9.4,'1111122,1111122,1111122' 
TCOON,ioos:station:TCOON:146:1,2015-03-05T20:30:00Z,28.1324,-97.0345,0.0,7.2,171.0,9.5,'1111122,1111122,1111122' 
TCOON,ioos:station:TCOON:146:1,2015-03-05T21:30:00Z,28.1324,-97.0345,0.0,6.1,172.0,7.6,'1111122,1111122,1111122' 
TCOON,ioos:station:TCOON:146:1,2015-03-05T22:30:00Z,28.1324,-97.0345,0.0,6.1,175.0,7.6,'1111122,1111122,1111122' 
TCOON,ioos:station:TCOON:146:1,2015-03-05T23:30:00Z,28.1324,-97.0345,0.0,6.0,175.0,7.7,'1111122,1111122,1111122' 
TCOON,ioos:station:TCOON:146:1,2015-03-06T00:30:00Z,28.1324,-97.0345,0.0,6.1,171.0,7.1,'1111122,1111122,1111122' 
TCOON,ioos:station:TCOON:146:1,2015-03-06T01:30:00Z,28.1324,-97.0345,0.0,5.2,187.0,6.6,'1111122,1111122,1111122' 
TCOON,ioos:station:TCOON:146:1,2015-03-06T02:30:00Z,28.1324,-97.0345,0.0,4.4,179.0,5.2,'1111122,1111122,1111122' 
TCOON,ioos:station:TCOON:146:1,2015-03-06T03:30:00Z,28.1324,-97.0345,0.0,4.4,171.0,5.4,'1111122,1111122,1111122' 
TCOON,ioos:station:TCOON:146:1,2015-03-06T04:30:00Z,28.1324,-97.0345,0.0,4.7,167.0,5.7,'1111122,1111122,1111122' 
TCOON,ioos:station:TCOON:146:1,2015-03-06T05:30:00Z,28.1324,-97.0345,0.0,5.4,165.0,6.4,'1111122,1111122,1111122' 
TCOON,ioos:station:TCOON:146:1,2015-03-06T07:00:00Z,28.1324,-97.0345,0.0,5.0,170.0,6.1,'1111122,1111122,1111122' 
TCOON,ioos:station:TCOON:146:1,2015-03-06T07:30:00Z,28.1324,-97.0345,0.0,5.3,171.0,6.7,'1111122,1111122,1111122' 
TCOON,ioos:station:TCOON:146:1,2015-03-06T08:30:00Z,28.1324,-97.0345,0.0,5.1,177.0,6.5,'1111122,1111122,1111122' 
TCOON,ioos:station:TCOON:146:1,2015-03-06T09:30:00Z,28.1324,-97.0345,0.0,4.8,181.0,6.3,'1111122,1111122,1111122' 
TCOON,ioos:station:TCOON:146:1,2015-03-06T10:30:00Z,28.1324,-97.0345,0.0,5.1,191.0,6.4,'1111122,1111122,1111122' 
TCOON,ioos:station:TCOON:146:1,2015-03-06T11:30:00Z,28.1324,-97.0345,0.0,4.6,190.0,5.8,'1111122,1111122,1111122' 
TCOON,ioos:station:TCOON:146:1,2015-03-06T12:30:00Z,28.1324,-97.0345,0.0,5.0,190.0,5.9,'1111122,1111122,1111122' 
TCOON,ioos:station:TCOON:146:1,2015-03-06T13:30:00Z,28.1324,-97.0345,0.0,4.6,196.0,5.9,'1111122,1111122,1111122' 
TCOON,ioos:station:TCOON:146:1,2015-03-06T14:30:00Z,28.1324,-97.0345,0.0,4.9,191.0,5.8,'1111122,1111122,1111122' 
TCOON,ioos:station:TCOON:146:1,2015-03-06T15:30:00Z,28.1324,-97.0345,0.0,6.0,209.0,7.7,'1111122,1111122,1111122' 
TCOON,ioos:station:TCOON:146:1,2015-03-06T16:30:00Z,28.1324,-97.0345,0.0,5.1,204.0,6.1,'1111122,1111122,1111122' 
TCOON,ioos:station:TCOON:146:1,2015-03-06T17:30:00Z,28.1324,-97.0345,0.0,4.8,209.0,5.8,'1111122,1111122,1111122' 
TCOON,ioos:station:TCOON:146:1,2015-03-06T18:30:00Z,28.1324,-97.0345,0.0,4.2,218.0,5.5,'1111122,1111122,1111122' 
TCOON,ioos:station:TCOON:146:1,2015-03-06T19:30:00Z,28.1324,-97.0345,0.0,3.5,213.0,5.2,'1111122,1111122,1111122' 
TCOON,ioos:station:TCOON:146:1,2015-03-06T20:30:00Z,28.1324,-97.0345,0.0,2.5,195.0,3.8,'1111122,1111122,1111122' 
TCOON,ioos:station:TCOON:146:1,2015-03-06T21:30:00Z,28.1324,-97.0345,0.0,3.8,319.0,4.5,'1111122,1111122,1111122' 
TCOON,ioos:station:TCOON:146:1,2015-03-06T22:30:00Z,28.1324,-97.0345,0.0,3.4,345.0,4.4,'1111122,1111122,1111122' 
TCOON,ioos:station:TCOON:146:1,2015-03-06T23:30:00Z,28.1324,-97.0345,0.0,3.3,353.0,4.6,'1111122,1111122,1111122' 
TCOON,ioos:station:TCOON:146:1,2015-03-07T00:30:00Z,28.1324,-97.0345,0.0,2.3,7.0,2.8,'1111122,1111122,1111122' 
TCOON,ioos:station:TCOON:146:1,2015-03-07T01:30:00Z,28.1324,-97.0345,0.0,3.3,15.0,4.0,'1111122,1111122,1111122' 
TCOON,ioos:station:TCOON:146:1,2015-03-07T02:30:00Z,28.1324,-97.0345,0.0,3.6,11.0,4.4,'1111122,1111122,1111122' 
TCOON,ioos:station:TCOON:146:1,2015-03-07T03:30:00Z,28.1324,-97.0345,0.0,1.7,358.0,2.4,'1111122,1111122,1111122' 
TCOON,ioos:station:TCOON:146:1,2015-03-07T04:30:00Z,28.1324,-97.0345,0.0,1.4,12.0,1.8,'1111122,1111122,1111122' 
TCOON,ioos:station:TCOON:146:1,2015-03-07T05:30:00Z,28.1324,-97.0345,0.0,2.7,61.0,3.6,'1111122,1111122,1111122' 
TCOON,ioos:station:TCOON:146:1,2015-03-07T06:30:00Z,28.1324,-97.0345,0.0,2.9,86.0,3.5,'1111122,1111122,1111122' 
TCOON,ioos:station:TCOON:146:1,2015-03-07T07:30:00Z,28.1324,-97.0345,0.0,3.1,92.0,3.8,'1111122,1111122,1111122' 
TCOON,ioos:station:TCOON:146:1,2015-03-07T08:30:00Z,28.1324,-97.0345,0.0,2.5,114.0,3.1,'1111122,1111122,1111122' 
TCOON,ioos:station:TCOON:146:1,2015-03-07T09:30:00Z,28.1324,-97.0345,0.0,1.3,113.0,2.1,'1111122,1111122,1111122' 
TCOON,ioos:station:TCOON:146:1,2015-03-07T10:30:00Z,28.1324,-97.0345,0.0,2.0,144.0,2.7,'1111122,1111122,1111122' 
TCOON,ioos:station:TCOON:146:1,2015-03-07T11:30:00Z,28.1324,-97.0345,0.0,3.1,135.0,3.6,'1111122,1111122,1111122' 
TCOON,ioos:station:TCOON:146:1,2015-03-07T12:30:00Z,28.1324,-97.0345,0.0,3.7,164.0,4.4,'1111122,1111122,1111122' 
TCOON,ioos:station:TCOON:146:1,2015-03-07T13:30:00Z,28.1324,-97.0345,0.0,4.3,179.0,5.0,'1111122,1111122,1111122' 
TCOON,ioos:station:TCOON:146:1,2015-03-07T14:30:00Z,28.1324,-97.0345,0.0,3.6,213.0,4.4,'1111122,1111122,1111122' 
TCOON,ioos:station:TCOON:146:1,2015-03-07T15:30:00Z,28.1324,-97.0345,0.0,4.7,227.0,5.5,'1111122,1111122,1111122' 
TCOON,ioos:station:TCOON:146:1,2015-03-07T16:30:00Z,28.1324,-97.0345,0.0,4.7,251.0,5.4,'1111122,1111122,1111122' 
TCOON,ioos:station:TCOON:146:1,2015-03-07T17:30:00Z,28.1324,-97.0345,0.0,4.2,244.0,5.4,'1111122,1111122,1111122' 
TCOON,ioos:station:TCOON:146:1,2015-03-07T18:30:00Z,28.1324,-97.0345,0.0,4.2,252.0,5.3,'1111122,1111122,1111122' 
TCOON,ioos:station:TCOON:146:1,2015-03-07T19:30:00Z,28.1324,-97.0345,0.0,4.4,255.0,5.4,'1111122,1111122,1111122' 
TCOON,ioos:station:TCOON:146:1,2015-03-07T20:30:00Z,28.1324,-97.0345,0.0,4.7,262.0,5.4,'1111122,1111122,1111122' 
TCOON,ioos:station:TCOON:146:1,2015-03-07T21:30:00Z,28.1324,-97.0345,0.0,4.7,259.0,5.5,'1111122,1111122,1111122' 
TCOON,ioos:station:TCOON:146:1,2015-03-07T22:30:00Z,28.1324,-97.0345,0.0,4.8,258.0,5.4,'1111122,1111122,1111122' 
TCOON,ioos:station:TCOON:146:1,2015-03-07T23:30:00Z,28.1324,-97.0345,0.0,4.6,239.0,5.5,'1111122,1111122,1111122' 
TCOON,ioos:station:TCOON:146:1,2015-03-08T00:30:00Z,28.1324,-97.0345,0.0,4.6,245.0,5.4,'1111122,1111122,1111122' 
TCOON,ioos:station:TCOON:146:1,2015-03-08T01:30:00Z,28.1324,-97.0345,0.0,4.5,241.0,5.4,'1111122,1111122,1111122' 
TCOON,ioos:station:TCOON:146:1,2015-03-08T02:30:00Z,28.1324,-97.0345,0.0,3.9,231.0,5.1,'1111122,1111122,1111122' 
TCOON,ioos:station:TCOON:146:1,2015-03-08T03:30:00Z,28.1324,-97.0345,0.0,3.9,230.0,4.9,'1111122,1111122,1111122' 
TCOON,ioos:station:TCOON:146:1,2015-03-08T04:30:00Z,28.1324,-97.0345,0.0,4.4,229.0,5.2,'1111122,1111122,1111122' 
TCOON,ioos:station:TCOON:146:1,2015-03-08T05:30:00Z,28.1324,-97.0345,0.0,4.9,230.0,5.5,'1111122,1111122,1111122' 
TCOON,ioos:station:TCOON:146:1,2015-03-08T07:00:00Z,28.1324,-97.0345,0.0,3.8,220.0,4.8,'1111122,1111122,1111122' 
TCOON,ioos:station:TCOON:146:1,2015-03-08T07:30:00Z,28.1324,-97.0345,0.0,3.9,207.0,4.8,'1111122,1111122,1111122' 
TCOON,ioos:station:TCOON:146:1,2015-03-08T08:30:00Z,28.1324,-97.0345,0.0,2.4,197.0,2.9,'1111122,1111122,1111122' 
TCOON,ioos:station:TCOON:146:1,2015-03-08T09:30:00Z,28.1324,-97.0345,0.0,3.2,199.0,3.9,'1111122,1111122,1111122' 
TCOON,ioos:station:TCOON:146:1,2015-03-08T10:30:00Z,28.1324,-97.0345,0.0,3.6,205.0,4.4,'1111122,1111122,1111122' 
TCOON,ioos:station:TCOON:146:1,2015-03-08T11:30:00Z,28.1324,-97.0345,0.0,3.9,211.0,4.7,'1111122,1111122,1111122' 
TCOON,ioos:station:TCOON:146:1,2015-03-08T12:30:00Z,28.1324,-97.0345,0.0,3.8,227.0,4.7,'1111122,1111122,1111122' 
TCOON,ioos:station:TCOON:146:1,2015-03-08T13:30:00Z,28.1324,-97.0345,0.0,4.7,249.0,5.5,'1111122,1111122,1111122' 
TCOON,ioos:station:TCOON:146:1,2015-03-08T14:30:00Z,28.1324,-97.0345,0.0,4.7,254.0,5.5,'1111122,1111122,1111122' 
TCOON,ioos:station:TCOON:146:1,2015-03-08T15:30:00Z,28.1324,-97.0345,0.0,3.6,248.0,4.9,'1111122,1111122,1111122' 
TCOON,ioos:station:TCOON:146:1,2015-03-08T16:30:00Z,28.1324,-97.0345,0.0,3.3,205.0,4.1,'1111122,1111122,1111122' 
TCOON,ioos:station:TCOON:146:1,2015-03-08T17:30:00Z,28.1324,-97.0345,0.0,3.8,210.0,5.0,'1111122,1111122,1111122' 
TCOON,ioos:station:TCOON:146:1,2015-03-08T18:30:00Z,28.1324,-97.0345,0.0,4.6,105.0,5.3,'1111122,1111122,1111122' 
TCOON,ioos:station:TCOON:146:1,2015-03-08T19:30:00Z,28.1324,-97.0345,0.0,4.8,185.0,5.4,'1111122,1111122,1111122' 
TCOON,ioos:station:TCOON:146:1,2015-03-08T20:30:00Z,28.1324,-97.0345,0.0,4.9,178.0,5.3,'1111122,1111122,1111122' 
TCOON,ioos:station:TCOON:146:1,2015-03-08T21:30:00Z,28.1324,-97.0345,0.0,4.7,200.0,5.4,'1111122,1111122,1111122' 
TCOON,ioos:station:TCOON:146:1,2015-03-08T22:30:00Z,28.1324,-97.0345,0.0,4.7,203.0,5.4,'1111122,1111122,1111122' 
TCOON,ioos:station:TCOON:146:1,2015-03-08T23:30:00Z,28.1324,-97.0345,0.0,4.8,207.0,5.4,'1111122,1111122,1111122' 
TCOON,ioos:station:TCOON:146:1,2015-03-09T00:30:00Z,28.1324,-97.0345,0.0,4.3,214.0,5.1,'1111122,1111122,1111122' 
TCOON,ioos:station:TCOON:146:1,2015-03-09T01:30:00Z,28.1324,-97.0345,0.0,4.1,201.0,4.9,'1111122,1111122,1111122' 
TCOON,ioos:station:TCOON:146:1,2015-03-09T02:30:00Z,28.1324,-97.0345,0.0,4.2,226.0,5.4,'1111122,1111122,1111122' 
TCOON,ioos:station:TCOON:146:1,2015-03-09T03:30:00Z,28.1324,-97.0345,0.0,3.0,192.0,3.6,'1111122,1111122,1111122' 
TCOON,ioos:station:TCOON:146:1,2015-03-09T04:30:00Z,28.1324,-97.0345,0.0,2.5,173.0,2.9,'1111122,1111122,1111122' 
TCOON,ioos:station:TCOON:146:1,2015-03-09T05:30:00Z,28.1324,-97.0345,0.0,3.1,213.0,4.2,'1111122,1111122,1111122' 
TCOON,ioos:station:TCOON:146:1,2015-03-09T06:30:00Z,28.1324,-97.0345,0.0,2.9,202.0,3.6,'1111122,1111122,1111122' 
TCOON,ioos:station:TCOON:146:1,2015-03-09T07:30:00Z,28.1324,-97.0345,0.0,3.4,220.0,4.1,'1111122,1111122,1111122' 
TCOON,ioos:station:TCOON:146:1,2015-03-09T08:30:00Z,28.1324,-97.0345,0.0,2.3,240.0,2.8,'1111122,1111122,1111122' 
TCOON,ioos:station:TCOON:146:1,2015-03-09T09:30:00Z,28.1324,-97.0345,0.0,5.2,263.0,6.0,'1111122,1111122,1111122' 
TCOON,ioos:station:TCOON:146:1,2015-03-09T10:30:00Z,28.1324,-97.0345,0.0,4.4,273.0,5.4,'1111122,1111122,1111122' 
TCOON,ioos:station:TCOON:146:1,2015-03-09T11:30:00Z,28.1324,-97.0345,0.0,3.0,282.0,3.4,'1111122,1111122,1111122' 
TCOON,ioos:station:TCOON:146:1,2015-03-09T12:30:00Z,28.1324,-97.0345,0.0,5.0,268.0,5.4,'1111122,1111122,1111122' 
TCOON,ioos:station:TCOON:146:1,2015-03-09T13:30:00Z,28.1324,-97.0345,0.0,4.0,290.0,4.8,'1111122,1111122,1111122' 
TCOON,ioos:station:TCOON:146:1,2015-03-09T14:30:00Z,28.1324,-97.0345,0.0,4.5,325.0,5.1,'1111122,1111122,1111122' 
TCOON,ioos:station:TCOON:146:1,2015-03-09T15:30:00Z,28.1324,-97.0345,0.0,4.5,321.0,5.2,'1111122,1111122,1111122' 
TCOON,ioos:station:TCOON:146:1,2015-03-09T16:30:00Z,28.1324,-97.0345,0.0,4.4,94.0,5.2,'1111122,1111122,1111122' 